Regional Weather Roundup
Issued by NWS Upton, NY

Current Version | Previous Version | Text Only | Print | Product List | Glossary Off
Versions: 1 2 3 4 5 6 7 8 9 10 11 12 13 14 15 16 17 18 19 20 21 22 23 24 25 26 27 28 29 30 31 32 33 34 35 36 37 38 39 40 41 42 43 44 45 46 47 48 49 50
326 ASUS41 KOKX 250409 RWROKX REGIONAL WEATHER ROUNDUP NATIONAL WEATHER SERVICE NEW YORK NY 1200 AM EDT SUN JUN 25 2017 NOTE: "FAIR" INDICATES FEW OR NO CLOUDS BELOW 12,000 FEET WITH NO SIGNIFICANT WEATHER AND/OR OBSTRUCTIONS TO VISIBILITY. NYZ071-072-176-178-NJZ106-104-250500- NEW YORK CITY METRO AREA CITY SKY/WX TMP DP RH WIND PRES REMARKS Central Park CLEAR 78 57 48 VRB3 29.92R Bronx Bot Gard N/A 79 55 44 W15 29.93R LaGuardia APRT PTCLDY 82 58 43 W14 29.88S Kennedy INTL PTCLDY 76 65 68 SW6 29.90R Breezy Point N/A 68 N/A N/A W7 N/A Newark/Liberty PTCLDY 77 59 53 W13 29.90R Teterboro CLEAR 77 59 53 NW13 29.90R $$ NYZ177-179-078>081-250500- LONG ISLAND NEW YORK CITY SKY/WX TMP DP RH WIND PRES REMARKS Jones Beach N/A 68 N/A N/A W7 N/A Matinecock PT NOT AVBL Farmingdale NOT AVBL MacArthur/ISP PTCLDY 71 61 70 SW7 29.88S Shirley CLEAR 74 63 68 SW6 29.89S Mt Sinai Harb N/A 77 N/A N/A SW6 N/A Westhampton CLEAR 61 56 83 CALM 29.91R East Hampton FAIR 62 58 86 CALM 29.88S Montauk N/A 75 57 53 SW6 29.89R $$ NYZ052-065-067-250500- HUDSON VALLEY CITY SKY/WX TMP DP RH WIND PRES REMARKS White Plains PTCLDY 73 57 56 NW9 29.92R Larchmont Harb N/A 77 N/A N/A W21 N/A Croton O-T Hud N/A 73 N/A N/A NW8 N/A Newburgh MOCLDY 68 64 88 CALM 29.95R Montgomery CLOUDY 67 63 87 SW5 29.93R Poughkeepsie LGT RAIN 67 64 90 CALM 29.92R Albany MOCLDY 67 55 65 CALM 29.91R $$ NJZ001-105-106-008-010-013-015-019>022-104-250500- NEW JERSEY CITY SKY/WX TMP DP RH WIND PRES REMARKS Newark/Liberty PTCLDY 77 59 53 W13 29.90R Teterboro CLEAR 77 59 53 NW13 29.90R Caldwell CLEAR 75 58 55 NW6 29.93R Somerville CLEAR 67 64 90 CALM 29.90R Linden FAIR 76 57 51 W6 29.91R Perth Amboy N/A 75 N/A N/A W8 N/A Sussex CLOUDY 70 60 70 CALM 29.95R Andover N/A 69 61 75 CALM 29.96R Trenton CLEAR 76 59 55 W6 29.92R Millville CLEAR 66 66 100 CALM 29.95R Atlantic City PTCLDY 76 63 64 W6 29.94R Wrightstown CLEAR 68 63 84 SW6 29.90S Toms River CLEAR 70 62 76 SW5 29.94R Belmar CLEAR 72 61 68 SW7 29.93S $$ PAZ047>061-062-071-250500- EASTERN PENNSYLVANIA CITY SKY/WX TMP DP RH WIND PRES REMARKS Philadelphia CLOUDY 77 60 55 SW8 29.94R Allentown CLOUDY 73 59 61 N6 29.95R Scranton PTCLDY 64 63 96 CALM 29.97R $$ CTZ002-004>006-009-010-012-RIZ004-006-007-MAZ004-011-015-250500- SOUTHERN NEW ENGLAND IN CT CITY SKY/WX TMP DP RH WIND PRES REMARKS Bradley INTL LGT RAIN 73 56 54 NW10G17 29.90R Hartford LGT RAIN 74 58 57 NW12G17 29.90R Danbury CLEAR 70 60 70 NW6 29.94R Wtrbury/Oxford CLOUDY 66 55 68 N9 29.94R Bridgeport CLEAR 72 62 71 W5 29.88R Meriden CLOUDY 72 58 61 NW10 29.90R New Haven NOT AVBL Chester FAIR 70 57 64 SW3 29.89R Groton CLEAR 69 59 70 CALM 29.87R Wilimantic MOCLDY 65 60 84 VRB3 29.90R IN RI CITY SKY/WX TMP DP RH WIND PRES REMARKS Providence PTCLDY 68 58 70 W6 29.87R Block Island CLEAR 70 57 63 SW12 29.88S Westerly CLEAR 70 62 76 CALM 29.88R IN MA CITY SKY/WX TMP DP RH WIND PRES REMARKS Boston PTCLDY 76 53 44 W14 29.84R Worcester CLEAR 68 51 54 W14 29.90R Westfield CLOUDY 72 56 57 MISG N/A Provincetown CLEAR 67 59 75 W9 29.85R Nantucket N/A 67 58 72 W12 29.86R $$ ANZ330-335-338-340-345-350-353-355-250500- COASTAL MARINE OBSERVATIONS STATION/POSITION TIME SKY/WX TEMP WIND PRES VSBY WAVE AIR SEA DIR/SP/G HT/PER (UTC) (F) (DEG/KT/KT) (MB) (MI) (FT/S) NY HARB ENTRANCE 0250 71 67 230/ 8/ 8 1012.1 4/ 8 20 S FIRE ISLAND 0350 71 69 230/ 10/ 12 1012.2 5/ 8 GREAT SOUTH BAY 0315 75 76 250/ 10/ 12 N/A 23 SSW MONTAUK P 0250 69 64 1012.0 8/ 9 15 E BARNEGAT LI 0330 65 N/A 5/ 8 HUDSON CANYON 0250 68 66 210/ 6/ 8 1013.0 6/ 8 KINGS POINT 0324 78 65 300/ 10/ 15 1012.0 EXECUTION ROCKS 0345 76 240/ 12/ 17 N/A CENTRAL LI SOUND 0315 72 230/ 8/ 8 N/A 1 EASTERN LI SOUND NOT AVBL ROBBINS REEF 0336 250/ 11/ 13 1013.0 $$ >>>>>>>>>>>>>>>>>>>>>>>>>>>> KEY <<<<<<<<<<<<<<<<<<<<<<<<<<< > < > SKY/WX - Sky Condition/Present Weather < > TMP - Temperature in Fahrenheit < > DP - Dew Point in Fahrenheit < > RH - Relative Humidity in Percent < > WIND - Direction (from) and Speed in MPH < > PRES - Mean Sea Level Pressure (inches of Hg) < > WCI - Wind Chill Index < > VSB - VISIBILITY IN MILES < > HX - HEAT INDEX < > TC - TEMPERATURE IN CELSIUS < > VRB - VARIABLE WIND DIRECTION < > < >>>>>>>>>>>>>>>>>>>>>>>>>>>> KEY <<<<<<<<<<<<<<<<<<<<<<<<<<<

USA.gov is the U.S. government's official web portal to all federal, state and local government web resources and services.